Location: Ajisawe
(8.4333°N, 4.3833°E)
Time: 01:26:14
(UTC+00:00)

Courier 1B Rocket - Pass Details

Date: 23 April 2021
Orbit: 920 x 1202 km, 28.3° (Epoch: 13 May)

Event Time Altitude Azimuth Distance (km) Brightness Sun altitude
Rises 23:23:35 0° 307° (NW) 3,873 - -68.3°
Reaches altitude 10° 23:26:22 10° 313° (NW) 2,958 - -68.4°
Maximum altitude 23:33:26 49° 26° (NNE) 1,454 - -68.6°
Drops below altitude 10° 23:40:52 10° 99° (E) 3,110 - -68.7°
Sets 23:43:52 0° 104° (ESE) 4,087 - -68.7°
